Flag for Germany Weather past 2 weeks in Schwabach, Bavaria, Germany

Now
55 °F

Passing clouds.


Feels Like: 55 °F
Forecast: 50 / 70 °F
Wind: 5 mph from Southwest

Location: Nuernberg

Current Time: Jul 29, 2015 at 3:26:07 AM

Latest Report: Jul 29, 2015 at 2:50 AM


Visibility: N/A

Pressure: 29.89 "Hg

Humidity: 82%

Dew point: 50 °F

Location of SchwabachLocation

Historic Weather in Schwabach — Graph

°F

Schwabach temperature yesterday

Maximum temperature yesterday: 70 °F (at 12:50 PM)
Minimum temperature yesterday: 61 °F (at 12:20 AM)
Average temperature yesterday: 65 °F

Past Weeks' High & Low Weather Summary

 TemperatureHumidityPressure
High97 °F (Jul 17, 4:50 PM)100% (Jul 23, 1:50 AM)30.15 "Hg (Jul 23, 1:50 AM)
Low52 °F (Jul 26, 4:20 AM)21% (Jul 17, 1:20 PM)29.68 "Hg (Jul 25, 12:50 AM)
Average72 °F60%29.95 "Hg
* Reported Jul 14 2:20 AM — Jul 29 2:20 AM, Schwabach, Weather by CustomWeather, © 2015

Note: Actual official high and low records may vary slightly from our data, if they occured in-between our weather recording intervals... More about our weather records

Advertising

Schwabach weather history for previous 24 hours

 ConditionsComfort  
Time TempWeatherWind HumidityBarometerVisibility
2:20 AM
Wed, Jul 29
57 °FLight rain. Clear.7 mph72%29.89 "HgN/A
1:50 AM57 °FLight rain. Clear.6 mph72%29.89 "HgN/A
1:20 AM59 °FLight rain. Clear.15 mph63%29.89 "HgN/A
12:50 AM61 °FLight rain. Clear.16 mph55%29.89 "HgN/A
11:20 PM
Tue, Jul 28
63 °FClear.10 mph49%29.86 "Hg10 mi
10:50 PM63 °FClear.8 mph49%29.86 "Hg10 mi
10:20 PM63 °FClear.7 mph49%29.86 "Hg10 mi
9:50 PM64 °FSunny.7 mph43%29.83 "Hg10 mi
9:20 PM64 °FSunny.12 mph43%29.83 "Hg10 mi
8:20 PM66 °FSunny.15 mph40%29.83 "Hg10 mi
7:50 PM66 °FPassing clouds.16 mph43%29.83 "HgN/A
7:20 PM66 °FSunny.15 mph43%29.80 "Hg10 mi
6:50 PM68 °FPassing clouds.18 mph40%29.80 "HgN/A
6:20 PM68 °FSunny.18 mph40%29.80 "Hg10 mi
5:50 PM68 °FPassing clouds.17 mph40%29.80 "HgN/A
5:20 PM68 °FSunny.16 mph40%29.80 "Hg10 mi
4:50 PM68 °FPassing clouds.18 mph43%29.80 "HgN/A
4:20 PM70 °FSunny.22 mph38%29.80 "Hg10 mi
3:50 PM68 °FSunny.22 mph43%29.80 "Hg10 mi
3:20 PM70 °FSunny.22 mph40%29.80 "Hg10 mi
2:50 PM68 °FSunny.20 mph46%29.80 "Hg10 mi
2:20 PM70 °FSunny.21 mph40%29.80 "Hg10 mi
1:50 PM68 °FSunny.18 mph46%29.80 "Hg10 mi
1:20 PM68 °FSunny.22 mph46%29.80 "Hg10 mi
12:50 PM70 °FBroken clouds.22 mph46%29.80 "HgN/A
12:20 PM68 °FPartly sunny.22 mph49%29.80 "HgN/A
11:50 AM66 °FBroken clouds.21 mph49%29.80 "HgN/A
11:20 AM64 °FBroken clouds.13 mph60%29.80 "HgN/A
10:50 AM64 °FPartly sunny.20 mph56%29.80 "HgN/A
10:20 AM64 °FBroken clouds.17 mph56%29.80 "HgN/A
9:50 AM64 °FBroken clouds.18 mph60%29.80 "HgN/A
9:20 AM64 °FBroken clouds.18 mph60%29.80 "HgN/A
8:50 AM64 °FBroken clouds.17 mph60%29.80 "HgN/A
8:20 AM64 °FPassing clouds.16 mph60%29.80 "HgN/A
7:50 AM63 °FSunny.13 mph64%29.77 "Hg10 mi
7:20 AM63 °FSunny.14 mph64%29.77 "Hg10 mi
6:50 AM63 °FPassing clouds.8 mph64%29.77 "HgN/A
6:20 AM63 °FPassing clouds.9 mph64%29.77 "HgN/A
5:50 AM63 °FPassing clouds.9 mph64%29.77 "HgN/A
5:20 AM63 °FClear.8 mph59%29.77 "Hg10 mi
4:50 AM64 °FPassing clouds.8 mph56%29.77 "HgN/A
4:20 AM63 °FPassing clouds.7 mph59%29.77 "HgN/A
3:50 AM64 °FClear.8 mph56%29.77 "Hg10 mi
3:20 AM64 °FClear.6 mph56%29.77 "Hg10 mi
Weather by CustomWeather, © 2015

See weather overviewHow to use our weather pages